Orbital Elements at Epoch 2459200.5 (2020-Dec-17.0) TDB
Reference: JPL 28 (heliocentric ecliptic J2000)
Element | Value | Uncertainty (1-sigma) | Units |
e | .5823774777539531 | 7.538e-08 | |
a | 1.350813818573335 | 2.0574e-09 | au |
q | .5641302739974101 | 1.0187e-07 | au |
i | 7.707739191276141 | 1.7533e-05 | deg |
node | 19.17731117152684 | 3.7864e-05 | deg |
peri | 258.5624548826748 | 3.4688e-05 | deg |
M | 275.804493900578 | 2.2242e-05 | deg |
tp | 2459334.615224228497 (2021-Apr-30.11522423) | 3.5425e-05 | TDB |
period | 573.4448661101447 1.57 | 1.3101e-06 3.587e-09 | d yr |
n | .6277848513005133 | 1.4342e-09 | deg/d |
Q | 2.13749736314926 | 3.2555e-09 | au |
|
| | Orbit Determination Parameters
Additional Information
|